Weather History for KDNS - October, 2012

Change the Weather History Date:

Saturday, October 13, 2012

  Actual Average Record
Temperature  
Mean Temperature 61 °F -  
Max Temperature 71 °F 63 °F 82 °F (2000)
Min Temperature 51 °F 42 °F 28 °F (2006)
Degree Days  
Heating Degree Days 4    
Growing Degree Days 11 (Base 50)    
Moisture  
Dew Point 57 °F    
Average Humidity 81    
Maximum Humidity 100    
Minimum Humidity 64    
Precipitation  
Precipitation 0.33 in - - ()
Sea Level Pressure  
Sea Level Pressure 29.75 in    
Wind  
Wind Speed 11 mph (SSW)    
Max Wind Speed 21 mph    
Max Gust Speed 28 mph    
Visibility 8 miles    
Events Rain    
Averages and records for this station are not official NWS values.
T = Trace of Precipitation, MM = Missing Value Source: NWS Daily Summary

Daily Weather History Graph

Daily Weather History Graph

Search for Another Location

Airport or City:

Trip Planner

Search our weather history database for the weather conditions in past years. The results will help you decide how hot, cold, wet, or windy it might be!

Date:

Astronomy

Oct. 13, 2012 Rise Set
Actual Time 7:32 AM CDT 6:42 PM CDT
Civil Twilight 7:04 AM CDT 7:10 PM CDT
Nautical Twilight 6:31 AM CDT 7:42 PM CDT
Astronomical Twilight 5:59 AM CDT 8:14 PM CDT
Moon 5:21 AM CDT (10/13) 5:27 PM CDT (10/13)
Length of Visible Light 12h 06m
Length of Day
11h 09m
Waning Crescent, 5% of the Moon is Illuminated
Oct 13
Waning Crescent
Oct 15
New
Oct 21
First Quarter
Oct 29
Full
Nov 6
Last Quarter

Hourly Weather History & Observations

Time (CDT) Temp. Dew Point Humidity Pressure Visibility Wind Dir Wind Speed Gust Speed Precip Events Conditions
12:15 AM 53.6 °F 42.8 °F 67% 30.00 in 10.0 mi South 11.5 mph 20.7 mph N/A   Overcast
12:35 AM 53.6 °F 42.8 °F 67% 29.99 in 10.0 mi South 12.7 mph - N/A   Overcast
1:15 AM 53.6 °F 44.6 °F 72% 29.98 in 10.0 mi SSW 10.4 mph 18.4 mph N/A   Overcast
1:55 AM 53.6 °F 46.4 °F 77% 29.93 in 10.0 mi SSW 11.5 mph 19.6 mph N/A   Overcast
2:15 AM 51.8 °F 46.4 °F 82% 29.92 in 8.0 mi South 11.5 mph - N/A   Overcast
2:35 AM 53.6 °F 46.4 °F 77% 29.92 in 9.0 mi South 9.2 mph 15.0 mph N/A   Overcast
2:55 AM 53.6 °F 46.4 °F 77% 29.91 in 10.0 mi South 10.4 mph 18.4 mph N/A   Overcast
3:35 AM 53.6 °F 48.2 °F 82% 29.89 in 8.0 mi South 11.5 mph - N/A   Overcast
3:55 AM 53.6 °F 48.2 °F 82% 29.88 in 8.0 mi South 9.2 mph 17.3 mph N/A   Overcast
4:15 AM 53.6 °F 50.0 °F 88% 29.86 in 7.0 mi South 11.5 mph - N/A   Overcast
4:35 AM 53.6 °F 50.0 °F 88% 29.84 in 6.0 mi South 11.5 mph - N/A   Overcast
5:35 AM 53.6 °F 53.6 °F 100% 29.86 in 3.0 mi South 9.2 mph 16.1 mph N/A Rain Rain
5:55 AM 53.6 °F 53.6 °F 100% 29.85 in 3.0 mi South 6.9 mph - 0.30 in Rain Light Rain
6:15 AM 55.4 °F 53.6 °F 94% 29.84 in 4.0 mi SSW 4.6 mph - N/A Rain Light Rain
6:35 AM 55.4 °F 55.4 °F 100% 29.82 in 5.0 mi SSE 8.1 mph 15.0 mph N/A Rain Light Rain
6:55 AM 57.2 °F 55.4 °F 94% 29.79 in 10.0 mi SSE 12.7 mph - 0.02 in   Overcast
7:15 AM 57.2 °F 55.4 °F 94% 29.80 in 10.0 mi South 13.8 mph 19.6 mph N/A   Mostly Cloudy
7:55 AM 57.2 °F 55.4 °F 94% 29.80 in 9.0 mi South 17.3 mph 26.5 mph 0.01 in   Overcast
8:15 AM 57.2 °F 57.2 °F 100% 29.79 in 6.0 mi South 18.4 mph 25.3 mph N/A   Overcast
8:55 AM 59.0 °F 57.2 °F 94% 29.79 in 4.0 mi South 18.4 mph 25.3 mph N/A   Overcast
9:15 AM 59.0 °F 59.0 °F 100% 29.78 in 1.5 mi South 15.0 mph 23.0 mph N/A   Overcast
9:35 AM 60.8 °F 59.0 °F 94% 29.77 in 4.0 mi South 16.1 mph 26.5 mph N/A   Overcast
9:55 AM 62.6 °F 60.8 °F 94% 29.76 in 4.0 mi South 15.0 mph 25.3 mph N/A   Overcast
10:15 AM 62.6 °F 60.8 °F 94% 29.76 in 4.0 mi South 16.1 mph 21.9 mph N/A   Mostly Cloudy
10:55 AM 66.2 °F 60.8 °F 83% 29.73 in 7.0 mi South 15.0 mph 23.0 mph N/A   Partly Cloudy
11:35 AM 68.0 °F 59.0 °F 73% 29.73 in 10.0 mi SSW 16.1 mph 25.3 mph N/A   Partly Cloudy
11:55 AM 68.0 °F 60.8 °F 78% 29.73 in 10.0 mi SSW 11.5 mph 24.2 mph N/A   Mostly Cloudy
12:15 PM 69.8 °F 59.0 °F 68% 29.71 in 10.0 mi SW 11.5 mph 18.4 mph N/A   Scattered Clouds
12:35 PM 71.6 °F 59.0 °F 64% 29.72 in 10.0 mi SSW 19.6 mph 27.6 mph N/A   Scattered Clouds
12:55 PM 69.8 °F 59.0 °F 68% 29.71 in 10.0 mi SSW 19.6 mph 26.5 mph N/A   Overcast
1:15 PM 69.8 °F 60.8 °F 73% 29.70 in 10.0 mi SSW 20.7 mph 27.6 mph N/A   Overcast
1:55 PM 69.8 °F 60.8 °F 73% 29.69 in - SW 12.7 mph - N/A   Overcast
2:15 PM 69.8 °F 59.0 °F 68% 29.69 in 10.0 mi SW 12.7 mph 21.9 mph N/A   Overcast
2:35 PM 69.8 °F 59.0 °F 68% 29.69 in 10.0 mi WSW 15.0 mph 23.0 mph N/A   Overcast
2:55 PM 69.8 °F 59.0 °F 68% 29.68 in 10.0 mi SW 18.4 mph - N/A   Overcast
3:15 PM 71.6 °F 59.0 °F 64% 29.68 in 10.0 mi SW 13.8 mph 24.2 mph N/A   Overcast
3:35 PM 71.6 °F 59.0 °F 64% 29.68 in 10.0 mi SW 17.3 mph 25.3 mph N/A   Mostly Cloudy
3:55 PM 71.6 °F 59.0 °F 64% 29.67 in 10.0 mi SSW 12.7 mph 20.7 mph N/A   Overcast
4:15 PM 71.6 °F 60.8 °F 69% 29.67 in 10.0 mi SSW 15.0 mph 20.7 mph N/A   Overcast
4:55 PM 71.6 °F 60.8 °F 69% 29.66 in 10.0 mi SSW 10.4 mph 17.3 mph N/A   Overcast
5:15 PM 71.6 °F 60.8 °F 69% 29.66 in 10.0 mi SSW 8.1 mph - N/A   Overcast
5:35 PM 71.6 °F 60.8 °F 69% 29.66 in 10.0 mi SSW 10.4 mph - N/A   Overcast
5:55 PM 71.6 °F 60.8 °F 69% 29.67 in 10.0 mi SSW 8.1 mph - N/A   Overcast
6:15 PM 69.8 °F 60.8 °F 73% 29.66 in 10.0 mi South 8.1 mph - N/A   Overcast
6:35 PM 69.8 °F 60.8 °F 73% 29.66 in 10.0 mi South 5.8 mph - N/A   Mostly Cloudy
7:55 PM 66.2 °F 60.8 °F 83% 29.65 in 10.0 mi Calm Calm - N/A   Overcast
8:15 PM 66.2 °F 60.8 °F 83% 29.65 in 10.0 mi Calm Calm - N/A   Overcast
8:35 PM 66.2 °F 60.8 °F 83% 29.65 in 10.0 mi SE 4.6 mph - N/A   Overcast
9:15 PM 66.2 °F 62.6 °F 88% 29.65 in 10.0 mi Calm Calm - N/A   Overcast
9:35 PM 66.2 °F 62.6 °F 88% 29.66 in 10.0 mi South 4.6 mph - N/A   Overcast
9:55 PM 66.2 °F 62.6 °F 88% 29.67 in 9.0 mi Calm Calm - N/A   Overcast
10:15 PM 66.2 °F 62.6 °F 88% 29.66 in 8.0 mi Calm Calm - N/A   Overcast
10:35 PM 66.2 °F 62.6 °F 88% 29.65 in - Calm Calm - N/A   Overcast
10:55 PM 66.2 °F 64.4 °F 94% 29.64 in 7.0 mi Calm Calm - N/A   Overcast
11:15 PM 66.2 °F 64.4 °F 94% 29.63 in 5.0 mi Calm Calm - N/A Rain Light Rain
11:35 PM 66.2 °F 64.4 °F 94% 29.57 in 3.0 mi East 19.6 mph - N/A Rain Light Rain